Back to catalog

CZ-8 R/B

AlivePO
NORAD 69122·ROCKET BODY·🇨🇳 China

Launched May 17, 2026 from Wenchang Space Launch Site

Loading…

Next Passes (next 24 hours)

TLE

FreshSource: Space-Track

Epoch: Sep 14, 2026, 14:11 UTC

1 69122U 26108U   26257.59144289  .00000184  00000-0  52617-4 0  9999
2 69122  89.0188  11.7594 0069157  79.4338 281.4643 14.39222221 17267

Track CZ-8 R/B in real time with AllMySat

Download on the App Store